Time,TemperatureF,DewpointF,PressureIn,WindDirection,WindDirectionDegrees,WindSpeedMPH,WindSpeedGustMPH,Humidity,HourlyPrecipIn,Conditions,Clouds,dailyrainin,SoftwareType,DateUTC
2013-09-24 00:00:00,58.4,48.3,30.05,NE,49,0.0,1.0,69,0.00,,,0.00,VWS V14.01,2013-09-24 04:00:00,
2013-09-24 00:01:00,56.3,48.1,30.05,NW,315,0.0,1.0,74,0.00,,,0.00,VWS V14.01,2013-09-24 04:01:00,
2013-09-24 00:06:00,56.2,48.4,30.05,NW,315,0.0,1.0,75,0.00,,,0.00,VWS V14.01,2013-09-24 04:06:00,
2013-09-24 00:10:00,56.2,48.4,30.05,NW,315,0.0,1.0,75,0.00,,,0.00,VWS V14.01,2013-09-24 04:10:00,
2013-09-24 00:11:00,56.0,48.2,30.05,NW,315,0.0,1.0,75,0.00,,,0.00,VWS V14.01,2013-09-24 04:11:00,
2013-09-24 00:16:00,56.0,48.2,30.04,NW,315,0.0,1.0,75,0.00,,,0.00,VWS V14.01,2013-09-24 04:16:00,
2013-09-24 00:20:00,55.9,48.1,30.04,NW,315,0.0,1.0,75,0.00,,,0.00,VWS V14.01,2013-09-24 04:20:00,
2013-09-24 00:21:00,55.9,48.1,30.04,NW,315,0.0,1.0,75,0.00,,,0.00,VWS V14.01,2013-09-24 04:21:00,
2013-09-24 00:26:00,55.7,47.9,30.04,NW,315,0.0,1.0,75,0.00,,,0.00,VWS V14.01,2013-09-24 04:26:00,
2013-09-24 00:30:00,55.7,48.3,30.04,NW,315,0.0,1.0,76,0.00,,,0.00,VWS V14.01,2013-09-24 04:30:00,
2013-09-24 00:31:00,55.6,48.2,30.04,NW,315,0.0,1.0,76,0.00,,,0.00,VWS V14.01,2013-09-24 04:31:00,
2013-09-24 00:36:00,55.6,48.2,30.04,NW,315,0.0,1.0,76,0.00,,,0.00,VWS V14.01,2013-09-24 04:36:00,
2013-09-24 00:40:00,55.4,48.0,30.04,NW,315,0.0,1.0,76,0.00,,,0.00,VWS V14.01,2013-09-24 04:40:00,
2013-09-24 00:41:00,55.4,48.0,30.04,NW,315,0.0,1.0,76,0.00,,,0.00,VWS V14.01,2013-09-24 04:41:00,
2013-09-24 00:46:00,55.3,48.2,30.04,NW,315,0.0,1.0,77,0.00,,,0.00,VWS V14.01,2013-09-24 04:46:00,
2013-09-24 00:50:00,55.3,48.2,30.04,NW,315,0.0,1.0,77,0.00,,,0.00,VWS V14.01,2013-09-24 04:50:00,
2013-09-24 00:51:00,55.1,48.0,30.04,NW,315,0.0,1.0,77,0.00,,,0.00,VWS V14.01,2013-09-24 04:51:00,
2013-09-24 00:56:00,55.1,48.0,30.04,NW,315,0.0,1.0,77,0.00,,,0.00,VWS V14.01,2013-09-24 04:56:00,
2013-09-24 01:00:00,55.0,47.9,30.05,NW,315,0.0,1.0,77,0.00,,,0.00,VWS V14.01,2013-09-24 05:00:00,
2013-09-24 01:01:00,55.0,48.3,30.05,NW,315,0.0,1.0,78,0.00,,,0.00,VWS V14.01,2013-09-24 05:01:00,
2013-09-24 01:06:00,54.8,48.1,30.05,NW,315,0.0,1.0,78,0.00,,,0.00,VWS V14.01,2013-09-24 05:06:00,
2013-09-24 01:10:00,54.8,48.1,30.05,NW,315,0.0,1.0,78,0.00,,,0.00,VWS V14.01,2013-09-24 05:10:00,
2013-09-24 01:11:00,54.8,48.1,30.05,NW,315,0.0,1.0,78,0.00,,,0.00,VWS V14.01,2013-09-24 05:11:00,
2013-09-24 01:16:00,54.7,48.0,30.05,NW,315,0.0,1.0,78,0.00,,,0.00,VWS V14.01,2013-09-24 05:16:00,
2013-09-24 01:20:00,54.7,48.0,30.05,NW,315,0.0,1.0,78,0.00,,,0.00,VWS V14.01,2013-09-24 05:20:00,
2013-09-24 01:21:00,54.7,48.0,30.05,NW,315,0.0,1.0,78,0.00,,,0.00,VWS V14.01,2013-09-24 05:21:00,
2013-09-24 01:26:00,54.5,48.1,30.05,NW,315,0.0,1.0,79,0.00,,,0.00,VWS V14.01,2013-09-24 05:26:00,
2013-09-24 01:30:00,54.5,48.1,30.05,NW,315,0.0,1.0,79,0.00,,,0.00,VWS V14.01,2013-09-24 05:30:00,
2013-09-24 01:31:00,54.4,48.0,30.05,NW,315,0.0,1.0,79,0.00,,,0.00,VWS V14.01,2013-09-24 05:31:00,
2013-09-24 01:36:00,54.2,47.8,30.05,NW,315,0.0,1.0,79,0.00,,,0.00,VWS V14.01,2013-09-24 05:36:00,
2013-09-24 01:40:00,54.2,48.2,30.05,NW,315,0.0,1.0,80,0.00,,,0.00,VWS V14.01,2013-09-24 05:40:00,
2013-09-24 01:41:00,54.2,48.2,30.05,NW,315,0.0,1.0,80,0.00,,,0.00,VWS V14.01,2013-09-24 05:41:00,
2013-09-24 01:47:00,54.1,48.1,30.05,NW,315,0.0,1.0,80,0.00,,,0.00,VWS V14.01,2013-09-24 05:47:00,
2013-09-24 01:50:00,54.1,48.1,30.05,NW,315,0.0,1.0,80,0.00,,,0.00,VWS V14.01,2013-09-24 05:50:00,
2013-09-24 01:51:00,54.1,48.1,30.05,NW,315,0.0,1.0,80,0.00,,,0.00,VWS V14.01,2013-09-24 05:51:00,
2013-09-24 01:57:00,53.9,47.9,30.05,NW,315,0.0,1.0,80,0.00,,,0.00,VWS V14.01,2013-09-24 05:57:00,
2013-09-24 02:00:00,53.9,47.9,30.04,NW,315,0.0,1.0,80,0.00,,,0.00,VWS V14.01,2013-09-24 06:00:00,
2013-09-24 02:01:00,53.9,47.9,30.04,NW,315,0.0,1.0,80,0.00,,,0.00,VWS V14.01,2013-09-24 06:01:00,
2013-09-24 02:07:00,53.8,48.1,30.04,NW,315,0.0,1.0,81,0.00,,,0.00,VWS V14.01,2013-09-24 06:07:00,
2013-09-24 02:10:00,53.8,48.1,30.04,NW,315,0.0,1.0,81,0.00,,,0.00,VWS V14.01,2013-09-24 06:10:00,
2013-09-24 02:12:00,53.8,48.1,30.04,NW,315,0.0,1.0,81,0.00,,,0.00,VWS V14.01,2013-09-24 06:12:00,
2013-09-24 02:17:00,53.6,47.9,30.04,NW,315,0.0,1.0,81,0.00,,,0.00,VWS V14.01,2013-09-24 06:17:00,
2013-09-24 02:20:00,53.6,47.9,30.04,NW,315,0.0,1.0,81,0.00,,,0.00,VWS V14.01,2013-09-24 06:20:00,
2013-09-24 02:22:00,53.6,47.9,30.04,NW,315,0.0,1.0,81,0.00,,,0.00,VWS V14.01,2013-09-24 06:22:00,
2013-09-24 02:27:00,53.5,48.2,30.04,NW,315,0.0,1.0,82,0.00,,,0.00,VWS V14.01,2013-09-24 06:27:00,
2013-09-24 02:30:00,53.5,48.2,30.04,NW,315,0.0,1.0,82,0.00,,,0.00,VWS V14.01,2013-09-24 06:30:00,
2013-09-24 02:32:00,53.5,48.2,30.04,NW,315,0.0,1.0,82,0.00,,,0.00,VWS V14.01,2013-09-24 06:32:00,
2013-09-24 02:37:00,53.5,48.2,30.04,NW,315,0.0,1.0,82,0.00,,,0.00,VWS V14.01,2013-09-24 06:37:00,
2013-09-24 02:40:00,54.2,48.2,30.05,NW,315,0.0,1.0,80,0.00,,,0.00,VWS V14.01,2013-09-24 06:40:00,
2013-09-24 02:42:00,53.5,48.2,30.04,NW,315,0.0,1.0,82,0.00,,,0.00,VWS V14.01,2013-09-24 06:42:00,
2013-09-24 02:50:00,53.5,48.2,30.04,NW,315,0.0,1.0,82,0.00,,,0.00,VWS V14.01,2013-09-24 06:50:00,
2013-09-24 02:52:00,53.5,48.2,30.04,NW,315,0.0,1.0,82,0.00,,,0.00,VWS V14.01,2013-09-24 06:52:00,
2013-09-24 02:57:00,53.6,48.2,30.04,NW,315,0.0,1.0,82,0.00,,,0.00,VWS V14.01,2013-09-24 06:57:00,
2013-09-24 03:00:00,53.6,47.9,30.04,NW,315,0.0,1.0,81,0.00,,,0.00,VWS V14.01,2013-09-24 07:00:00,
2013-09-24 03:02:00,53.6,47.9,30.04,NW,315,0.0,1.0,81,0.00,,,0.00,VWS V14.01,2013-09-24 07:02:00,
2013-09-24 03:07:00,53.8,48.1,30.04,NW,315,0.0,1.0,81,0.00,,,0.00,VWS V14.01,2013-09-24 07:07:00,
2013-09-24 03:10:00,53.8,48.1,30.04,NW,315,0.0,1.0,81,0.00,,,0.00,VWS V14.01,2013-09-24 07:10:00,
2013-09-24 03:12:00,53.9,48.2,30.04,NW,315,0.0,1.0,81,0.00,,,0.00,VWS V14.01,2013-09-24 07:12:00,
2013-09-24 03:17:00,53.9,48.2,30.04,NW,315,0.0,1.0,81,0.00,,,0.00,VWS V14.01,2013-09-24 07:17:00,
2013-09-24 03:20:00,53.9,48.2,30.04,NW,315,0.0,1.0,81,0.00,,,0.00,VWS V14.01,2013-09-24 07:20:00,
2013-09-24 03:27:00,53.8,48.1,30.04,NW,315,0.0,1.0,81,0.00,,,0.00,VWS V14.01,2013-09-24 07:27:00,
2013-09-24 03:30:00,53.8,48.1,30.04,NW,315,0.0,1.0,81,0.00,,,0.00,VWS V14.01,2013-09-24 07:30:00,
2013-09-24 03:32:00,53.8,48.1,30.04,NW,315,0.0,1.0,81,0.00,,,0.00,VWS V14.01,2013-09-24 07:32:00,
2013-09-24 03:37:00,53.8,48.1,30.04,NW,315,0.0,1.0,81,0.00,,,0.00,VWS V14.01,2013-09-24 07:37:00,
2013-09-24 03:40:00,53.8,48.1,30.04,NW,315,0.0,1.0,81,0.00,,,0.00,VWS V14.01,2013-09-24 07:40:00,
2013-09-24 03:42:00,53.8,48.1,30.04,NW,315,0.0,1.0,81,0.00,,,0.00,VWS V14.01,2013-09-24 07:42:00,
2013-09-24 03:45:00,53.5,48.2,30.04,NW,315,0.0,1.0,82,0.00,,,0.00,VWS V14.01,2013-09-24 07:45:00,
2013-09-24 03:50:00,53.6,47.9,30.04,NW,315,0.0,1.0,81,0.00,,,0.00,VWS V14.01,2013-09-24 07:50:00,
2013-09-24 03:52:00,53.5,48.2,30.04,NW,315,1.0,1.0,82,0.00,,,0.00,VWS V14.01,2013-09-24 07:52:00,
2013-09-24 03:57:00,53.6,47.9,30.04,NW,315,0.0,1.0,81,0.00,,,0.00,VWS V14.01,2013-09-24 07:57:00,
2013-09-24 04:00:00,53.5,47.8,30.04,NW,315,0.0,1.0,81,0.00,,,0.00,VWS V14.01,2013-09-24 08:00:00,
2013-09-24 04:07:00,53.3,48.0,30.04,NW,315,0.0,1.0,82,0.00,,,0.00,VWS V14.01,2013-09-24 08:07:00,
2013-09-24 04:10:00,53.8,48.1,30.04,NW,315,0.0,1.0,81,0.00,,,0.00,VWS V14.01,2013-09-24 08:10:00,
2013-09-24 04:12:00,53.3,48.0,30.04,NW,315,0.0,1.0,82,0.00,,,0.00,VWS V14.01,2013-09-24 08:12:00,
2013-09-24 04:20:00,53.9,48.2,30.04,NW,315,0.0,1.0,81,0.00,,,0.00,VWS V14.01,2013-09-24 08:20:00,
2013-09-24 04:22:00,53.2,47.9,30.04,NW,315,0.0,1.0,82,0.00,,,0.00,VWS V14.01,2013-09-24 08:22:00,
2013-09-24 04:27:00,53.9,48.2,30.04,NW,315,0.0,1.0,81,0.00,,,0.00,VWS V14.01,2013-09-24 08:27:00,
2013-09-24 04:30:00,53.8,48.1,30.04,NW,315,0.0,1.0,81,0.00,,,0.00,VWS V14.01,2013-09-24 08:30:00,
2013-09-24 04:32:00,53.1,48.1,30.04,NW,315,0.0,1.0,83,0.00,,,0.00,VWS V14.01,2013-09-24 08:32:00,
2013-09-24 04:37:00,52.9,47.9,30.04,NW,315,0.0,1.0,83,0.00,,,0.00,VWS V14.01,2013-09-24 08:37:00,
2013-09-24 04:40:00,52.9,47.9,30.04,NW,315,0.0,1.0,83,0.00,,,0.00,VWS V14.01,2013-09-24 08:40:00,
2013-09-24 04:42:00,52.9,47.9,30.04,NW,315,0.0,1.0,83,0.00,,,0.00,VWS V14.01,2013-09-24 08:42:00,
2013-09-24 04:50:00,52.8,47.8,30.04,NW,315,0.0,1.0,83,0.00,,,0.00,VWS V14.01,2013-09-24 08:50:00,
2013-09-24 04:52:00,53.6,47.9,30.04,NW,315,0.0,1.0,81,0.00,,,0.00,VWS V14.01,2013-09-24 08:52:00,
2013-09-24 04:57:00,53.6,47.9,30.04,NW,315,0.0,1.0,81,0.00,,,0.00,VWS V14.01,2013-09-24 08:57:00,
2013-09-24 05:00:00,53.5,47.8,30.04,NW,315,0.0,1.0,81,0.00,,,0.00,VWS V14.01,2013-09-24 09:00:00,
2013-09-24 05:07:00,53.5,48.2,30.04,NW,315,0.0,1.0,82,0.00,,,0.00,VWS V14.01,2013-09-24 09:07:00,
2013-09-24 05:10:00,53.3,48.0,30.04,NW,315,0.0,1.0,82,0.00,,,0.00,VWS V14.01,2013-09-24 09:10:00,
2013-09-24 05:15:00,53.3,48.0,30.04,NW,315,0.0,1.0,82,0.00,,,0.00,VWS V14.01,2013-09-24 09:15:00,
2013-09-24 05:20:00,53.2,47.9,30.04,NW,315,0.0,1.0,82,0.00,,,0.00,VWS V14.01,2013-09-24 09:20:00,
2013-09-24 05:22:00,53.2,47.9,30.04,NW,315,0.0,1.0,82,0.00,,,0.00,VWS V14.01,2013-09-24 09:22:00,
2013-09-24 05:30:00,53.1,47.8,30.04,NW,315,0.0,1.0,82,0.00,,,0.00,VWS V14.01,2013-09-24 09:30:00,
2013-09-24 05:32:00,53.1,47.8,30.04,NW,315,0.0,1.0,82,0.00,,,0.00,VWS V14.01,2013-09-24 09:32:00,
2013-09-24 05:40:00,52.9,47.9,30.04,NW,315,0.0,1.0,83,0.00,,,0.00,VWS V14.01,2013-09-24 09:40:00,
2013-09-24 05:42:00,52.5,47.5,30.06,NW,315,0.0,1.0,83,0.00,,,0.00,VWS V14.01,2013-09-24 09:42:00,
2013-09-24 05:50:00,52.8,47.8,30.04,NW,315,0.0,1.0,83,0.00,,,0.00,VWS V14.01,2013-09-24 09:50:00,
2013-09-24 05:52:00,52.8,47.8,30.04,NW,315,0.0,1.0,83,0.00,,,0.00,VWS V14.01,2013-09-24 09:52:00,
2013-09-24 05:57:00,52.8,47.8,30.04,NW,315,0.0,1.0,83,0.00,,,0.00,VWS V14.01,2013-09-24 09:57:00,
2013-09-24 06:00:00,52.6,47.6,30.05,NW,315,0.0,1.0,83,0.00,,,0.00,VWS V14.01,2013-09-24 10:00:00,
2013-09-24 06:02:00,52.6,47.6,30.04,NW,315,0.0,1.0,83,0.00,,,0.00,VWS V14.01,2013-09-24 10:02:00,
2013-09-24 06:07:00,52.6,47.6,30.05,NW,315,0.0,1.0,83,0.00,,,0.00,VWS V14.01,2013-09-24 10:07:00,
2013-09-24 06:10:00,52.2,47.5,30.06,NW,315,0.0,1.0,84,0.00,,,0.00,VWS V14.01,2013-09-24 10:10:00,
2013-09-24 06:12:00,52.6,47.6,30.05,NW,315,0.0,1.0,83,0.00,,,0.00,VWS V14.01,2013-09-24 10:12:00,
2013-09-24 06:17:00,52.6,47.6,30.05,NW,315,0.0,1.0,83,0.00,,,0.00,VWS V14.01,2013-09-24 10:17:00,
2013-09-24 06:20:00,52.6,47.6,30.05,NW,315,0.0,1.0,83,0.00,,,0.00,VWS V14.01,2013-09-24 10:20:00,
2013-09-24 06:22:00,52.6,47.6,30.05,NW,315,0.0,1.0,83,0.00,,,0.00,VWS V14.01,2013-09-24 10:22:00,
2013-09-24 06:27:00,52.6,47.6,30.05,NW,315,0.0,1.0,83,0.00,,,0.00,VWS V14.01,2013-09-24 10:27:00,
2013-09-24 06:30:00,52.6,47.6,30.06,NW,315,0.0,1.0,83,0.00,,,0.00,VWS V14.01,2013-09-24 10:30:00,
2013-09-24 06:32:00,52.6,47.6,30.05,NW,315,0.0,1.0,83,0.00,,,0.00,VWS V14.01,2013-09-24 10:32:00,
2013-09-24 06:40:00,51.9,47.5,30.06,NW,315,0.0,1.0,85,0.00,,,0.00,VWS V14.01,2013-09-24 10:40:00,
2013-09-24 06:42:00,52.6,47.6,30.06,NW,315,0.0,1.0,83,0.00,,,0.00,VWS V14.01,2013-09-24 10:42:00,
2013-09-24 06:47:00,52.0,47.6,30.06,NW,315,0.0,1.0,85,0.00,,,0.00,VWS V14.01,2013-09-24 10:47:00,
2013-09-24 06:50:00,52.5,47.5,30.06,NW,315,0.0,1.0,83,0.00,,,0.00,VWS V14.01,2013-09-24 10:50:00,
2013-09-24 06:52:00,52.5,47.8,30.06,NW,315,0.0,1.0,84,0.00,,,0.00,VWS V14.01,2013-09-24 10:52:00,
2013-09-24 06:57:00,52.3,47.6,30.06,NW,315,0.0,1.0,84,0.00,,,0.00,VWS V14.01,2013-09-24 10:57:00,
2013-09-24 07:00:00,52.3,47.6,30.06,NW,315,0.0,1.0,84,0.00,,,0.00,VWS V14.01,2013-09-24 11:00:00,
2013-09-24 07:02:00,52.3,47.6,30.06,NW,315,0.0,1.0,84,0.00,,,0.00,VWS V14.01,2013-09-24 11:02:00,
2013-09-24 07:07:00,52.2,47.5,30.06,NW,315,0.0,1.0,84,0.00,,,0.00,VWS V14.01,2013-09-24 11:07:00,
2013-09-24 07:10:00,52.2,47.5,30.06,NW,315,0.0,1.0,84,0.00,,,0.00,VWS V14.01,2013-09-24 11:10:00,
2013-09-24 07:17:00,52.2,47.5,30.06,NW,315,0.0,1.0,84,0.00,,,0.00,VWS V14.01,2013-09-24 11:17:00,
2013-09-24 07:20:00,52.0,47.3,30.06,NW,315,0.0,1.0,84,0.00,,,0.00,VWS V14.01,2013-09-24 11:20:00,
2013-09-24 07:23:00,52.0,47.3,30.06,NW,315,0.0,1.0,84,0.00,,,0.00,VWS V14.01,2013-09-24 11:23:00,
2013-09-24 07:28:00,52.0,47.6,30.06,NW,315,0.0,1.0,85,0.00,,,0.00,VWS V14.01,2013-09-24 11:28:00,
2013-09-24 07:30:00,52.0,47.6,30.06,NW,315,0.0,1.0,85,0.00,,,0.00,VWS V14.01,2013-09-24 11:30:00,
2013-09-24 07:33:00,52.0,47.6,30.06,NW,315,0.0,1.0,85,0.00,,,0.00,VWS V14.01,2013-09-24 11:33:00,
2013-09-24 07:38:00,52.0,47.6,30.06,NW,315,0.0,1.0,85,0.00,,,0.00,VWS V14.01,2013-09-24 11:38:00,
2013-09-24 07:40:00,51.9,47.5,30.06,NW,315,0.0,1.0,85,0.00,,,0.00,VWS V14.01,2013-09-24 11:40:00,
2013-09-24 07:43:00,51.9,47.5,30.06,NW,315,0.0,1.0,85,0.00,,,0.00,VWS V14.01,2013-09-24 11:43:00,
2013-09-24 07:48:00,51.9,47.5,30.06,NW,315,0.0,1.0,85,0.00,,,0.00,VWS V14.01,2013-09-24 11:48:00,
2013-09-24 07:50:00,52.0,47.6,30.06,NW,315,0.0,1.0,85,0.00,,,0.00,VWS V14.01,2013-09-24 11:50:00,
2013-09-24 07:55:00,52.0,47.6,30.06,NW,315,0.0,1.0,85,0.00,,,0.00,VWS V14.01,2013-09-24 11:55:00,
2013-09-24 08:00:00,52.2,47.8,30.07,NW,315,0.0,1.0,85,0.00,,,0.00,VWS V14.01,2013-09-24 12:00:00,
2013-09-24 08:03:00,52.2,47.8,30.06,NW,315,0.0,1.0,85,0.00,,,0.00,VWS V14.01,2013-09-24 12:03:00,
2013-09-24 08:08:00,52.2,47.8,30.07,NW,315,0.0,1.0,85,0.00,,,0.00,VWS V14.01,2013-09-24 12:08:00,
2013-09-24 08:10:00,52.3,47.9,30.07,NW,315,0.0,1.0,85,0.00,,,0.00,VWS V14.01,2013-09-24 12:10:00,
2013-09-24 08:13:00,52.3,47.9,30.07,NW,315,0.0,1.0,85,0.00,,,0.00,VWS V14.01,2013-09-24 12:13:00,
2013-09-24 08:18:00,52.5,48.1,30.07,NW,315,0.0,1.0,85,0.00,,,0.00,VWS V14.01,2013-09-24 12:18:00,
2013-09-24 08:20:00,52.6,48.2,30.06,NW,315,0.0,1.0,85,0.00,,,0.00,VWS V14.01,2013-09-24 12:20:00,
2013-09-24 08:23:00,52.6,48.2,30.06,NW,315,0.0,1.0,85,0.00,,,0.00,VWS V14.01,2013-09-24 12:23:00,
2013-09-24 08:28:00,52.8,48.1,30.06,NW,315,0.0,1.0,84,0.00,,,0.00,VWS V14.01,2013-09-24 12:28:00,
2013-09-24 08:30:00,53.1,48.4,30.06,NW,315,0.0,1.0,84,0.00,,,0.00,VWS V14.01,2013-09-24 12:30:00,
2013-09-24 08:33:00,52.9,48.2,30.06,NW,315,0.0,1.0,84,0.00,,,0.00,VWS V14.01,2013-09-24 12:33:00,
2013-09-24 08:38:00,53.2,48.5,30.06,NW,315,0.0,1.0,84,0.00,,,0.00,VWS V14.01,2013-09-24 12:38:00,
2013-09-24 08:40:00,53.8,48.8,30.06,NW,315,0.0,1.0,83,0.00,,,0.00,VWS V14.01,2013-09-24 12:40:00,
2013-09-24 08:43:00,53.6,48.6,30.06,NW,315,0.0,1.0,83,0.00,,,0.00,VWS V14.01,2013-09-24 12:43:00,
2013-09-24 08:48:00,54.1,49.1,30.06,NW,315,0.0,1.0,83,0.00,,,0.00,VWS V14.01,2013-09-24 12:48:00,
2013-09-24 08:50:00,54.4,49.0,30.06,South,182,0.0,1.0,82,0.00,,,0.00,VWS V14.01,2013-09-24 12:50:00,
2013-09-24 08:53:00,54.2,48.8,30.06,SSW,200,0.0,1.0,82,0.00,,,0.00,VWS V14.01,2013-09-24 12:53:00,
2013-09-24 08:58:00,54.4,48.7,30.06,South,169,0.0,1.0,81,0.00,,,0.00,VWS V14.01,2013-09-24 12:58:00,
2013-09-24 09:00:00,54.7,48.7,30.06,South,169,0.0,1.0,80,0.00,,,0.00,VWS V14.01,2013-09-24 13:00:00,
2013-09-24 09:03:00,54.7,49.0,30.06,South,169,0.0,1.0,81,0.00,,,0.00,VWS V14.01,2013-09-24 13:03:00,
2013-09-24 09:08:00,54.8,48.8,30.06,SSE,160,0.0,1.0,80,0.00,,,0.00,VWS V14.01,2013-09-24 13:08:00,
2013-09-24 09:10:00,55.1,49.4,30.06,SE,142,0.0,1.0,81,0.00,,,0.00,VWS V14.01,2013-09-24 13:10:00,
2013-09-24 09:13:00,55.0,49.0,30.06,SE,142,0.0,1.0,80,0.00,,,0.00,VWS V14.01,2013-09-24 13:13:00,
2013-09-24 09:18:00,55.3,49.6,30.06,SE,142,0.0,1.0,81,0.00,,,0.00,VWS V14.01,2013-09-24 13:18:00,
2013-09-24 09:20:00,56.0,49.9,30.06,SE,142,0.0,1.0,80,0.00,,,0.00,VWS V14.01,2013-09-24 13:20:00,
2013-09-24 09:23:00,55.7,49.6,30.06,SE,142,0.0,1.0,80,0.00,,,0.00,VWS V14.01,2013-09-24 13:23:00,
2013-09-24 09:28:00,56.2,49.4,30.06,SE,142,0.0,1.0,78,0.00,,,0.00,VWS V14.01,2013-09-24 13:28:00,
2013-09-24 09:30:00,56.2,49.4,30.06,SE,142,0.0,1.0,78,0.00,,,0.00,VWS V14.01,2013-09-24 13:30:00,
2013-09-24 09:33:00,56.2,49.8,30.06,SE,142,0.0,1.0,79,0.00,,,0.00,VWS V14.01,2013-09-24 13:33:00,
2013-09-24 09:38:00,56.3,49.9,30.06,SE,142,0.0,1.0,79,0.00,,,0.00,VWS V14.01,2013-09-24 13:38:00,
2013-09-24 09:40:00,56.9,50.1,30.06,SE,142,0.0,1.0,78,0.00,,,0.00,VWS V14.01,2013-09-24 13:40:00,
2013-09-24 09:43:00,56.7,50.3,30.06,SE,142,0.0,1.0,79,0.00,,,0.00,VWS V14.01,2013-09-24 13:43:00,
2013-09-24 09:48:00,57.0,50.2,30.06,SE,142,0.0,1.0,78,0.00,,,0.00,VWS V14.01,2013-09-24 13:48:00,
2013-09-24 09:50:00,57.8,50.7,30.06,SE,142,0.0,1.0,77,0.00,,,0.00,VWS V14.01,2013-09-24 13:50:00,
2013-09-24 09:53:00,57.6,50.5,30.06,SE,142,0.0,1.0,77,0.00,,,0.00,VWS V14.01,2013-09-24 13:53:00,
2013-09-24 09:58:00,58.1,50.9,30.06,SE,142,0.0,1.0,77,0.00,,,0.00,VWS V14.01,2013-09-24 13:58:00,
2013-09-24 10:00:00,58.9,51.0,30.05,SE,142,0.0,1.0,75,0.00,,,0.00,VWS V14.01,2013-09-24 14:00:00,
2013-09-24 10:03:00,58.7,51.5,30.06,SE,142,0.0,1.0,77,0.00,,,0.00,VWS V14.01,2013-09-24 14:03:00,
2013-09-24 10:08:00,59.2,51.7,30.05,SSW,213,0.0,1.0,76,0.00,,,0.00,VWS V14.01,2013-09-24 14:08:00,
2013-09-24 10:10:00,60.1,51.8,30.05,SSW,197,0.0,1.0,74,0.00,,,0.00,VWS V14.01,2013-09-24 14:10:00,
2013-09-24 10:13:00,59.9,51.6,30.05,SSW,197,0.0,1.0,74,0.00,,,0.00,VWS V14.01,2013-09-24 14:13:00,
2013-09-24 10:18:00,60.5,52.2,30.05,SSW,197,0.0,1.0,74,0.00,,,0.00,VWS V14.01,2013-09-24 14:18:00,
2013-09-24 10:20:00,61.5,52.0,30.05,ESE,121,0.0,1.0,71,0.00,,,0.00,VWS V14.01,2013-09-24 14:20:00,
2013-09-24 10:23:00,61.2,52.1,30.05,ESE,121,0.0,1.0,72,0.00,,,0.00,VWS V14.01,2013-09-24 14:23:00,
2013-09-24 10:28:00,62.0,52.1,30.05,ESE,121,0.0,1.0,70,0.00,,,0.00,VWS V14.01,2013-09-24 14:28:00,
2013-09-24 10:30:00,62.9,52.6,30.05,ESE,121,0.0,1.0,69,0.00,,,0.00,VWS V14.01,2013-09-24 14:30:00,
2013-09-24 10:33:00,62.6,52.7,30.05,ESE,121,0.0,1.0,70,0.00,,,0.00,VWS V14.01,2013-09-24 14:33:00,
2013-09-24 10:38:00,63.4,53.5,30.05,ESE,121,0.0,1.0,70,0.00,,,0.00,VWS V14.01,2013-09-24 14:38:00,
2013-09-24 10:40:00,64.5,53.7,30.05,ESE,121,0.0,1.0,68,0.00,,,0.00,VWS V14.01,2013-09-24 14:40:00,
2013-09-24 10:43:00,64.2,53.4,30.05,ESE,121,0.0,1.0,68,0.00,,,0.00,VWS V14.01,2013-09-24 14:43:00,
2013-09-24 10:48:00,65.0,54.2,30.05,ESE,121,0.0,1.0,68,0.00,,,0.00,VWS V14.01,2013-09-24 14:48:00,
2013-09-24 10:50:00,66.1,54.0,30.04,ESE,121,0.0,1.0,65,0.00,,,0.00,VWS V14.01,2013-09-24 14:50:00,
2013-09-24 10:53:00,65.8,53.7,30.04,ESE,121,0.0,1.0,65,0.00,,,0.00,VWS V14.01,2013-09-24 14:53:00,
2013-09-24 10:58:00,66.6,54.5,30.04,ESE,121,0.0,1.0,65,0.00,,,0.00,VWS V14.01,2013-09-24 14:58:00,
2013-09-24 11:00:00,67.4,54.4,30.04,ESE,121,0.0,1.0,63,0.00,,,0.00,VWS V14.01,2013-09-24 15:00:00,
2013-09-24 11:03:00,67.3,55.2,30.04,ESE,121,0.0,1.0,65,0.00,,,0.00,VWS V14.01,2013-09-24 15:03:00,
2013-09-24 11:08:00,67.8,54.8,30.04,ESE,121,0.0,1.0,63,0.00,,,0.00,VWS V14.01,2013-09-24 15:08:00,
2013-09-24 11:10:00,68.6,55.5,30.04,ESE,121,0.0,1.0,63,0.00,,,0.00,VWS V14.01,2013-09-24 15:10:00,
2013-09-24 11:13:00,68.4,55.8,30.04,ESE,121,0.0,1.0,64,0.00,,,0.00,VWS V14.01,2013-09-24 15:13:00,
2013-09-24 11:18:00,68.8,55.3,30.04,ESE,121,0.0,1.0,62,0.00,,,0.00,VWS V14.01,2013-09-24 15:18:00,
2013-09-24 11:20:00,69.4,55.8,30.04,SE,144,0.0,1.0,62,0.00,,,0.00,VWS V14.01,2013-09-24 15:20:00,
2013-09-24 11:23:00,69.3,55.7,30.04,SE,144,0.0,1.0,62,0.00,,,0.00,VWS V14.01,2013-09-24 15:23:00,
2013-09-24 11:28:00,69.8,56.2,30.04,SE,144,0.0,1.0,62,0.00,,,0.00,VWS V14.01,2013-09-24 15:28:00,
2013-09-24 11:30:00,70.8,56.2,30.04,SSE,165,0.0,1.0,60,0.00,,,0.00,VWS V14.01,2013-09-24 15:30:00,
2013-09-24 11:33:00,70.6,56.1,30.04,SSE,165,0.0,1.0,60,0.00,,,0.00,VWS V14.01,2013-09-24 15:33:00,
2013-09-24 11:38:00,71.3,56.7,30.04,SSE,150,0.0,1.0,60,0.00,,,0.00,VWS V14.01,2013-09-24 15:38:00,
2013-09-24 11:40:00,72.1,57.0,30.04,SSE,150,0.0,1.0,59,0.00,,,0.00,VWS V14.01,2013-09-24 15:40:00,
2013-09-24 11:43:00,72.0,56.9,30.04,SSE,150,0.0,1.0,59,0.00,,,0.00,VWS V14.01,2013-09-24 15:43:00,
2013-09-24 11:48:00,72.5,56.9,30.04,SSE,150,0.0,1.0,58,0.00,,,0.00,VWS V14.01,2013-09-24 15:48:00,
2013-09-24 11:50:00,72.7,56.1,30.03,SSE,150,0.0,1.0,56,0.00,,,0.00,VWS V14.01,2013-09-24 15:50:00,
2013-09-24 11:53:00,72.7,56.6,30.03,SSE,150,1.0,1.0,57,0.00,,,0.00,VWS V14.01,2013-09-24 15:53:00,
2013-09-24 11:58:00,73.2,57.1,30.03,SSE,150,0.0,1.0,57,0.00,,,0.00,VWS V14.01,2013-09-24 15:58:00,
2013-09-24 12:00:00,73.0,56.9,30.02,NE,44,0.0,1.0,57,0.00,,,0.00,VWS V14.01,2013-09-24 16:00:00,
2013-09-24 12:03:00,73.0,56.9,30.03,NE,44,0.0,1.0,57,0.00,,,0.00,VWS V14.01,2013-09-24 16:03:00,
2013-09-24 12:08:00,73.2,56.6,30.02,NE,44,1.0,1.0,56,0.00,,,0.00,VWS V14.01,2013-09-24 16:08:00,
2013-09-24 12:10:00,73.7,56.5,30.02,NE,44,0.0,1.0,55,0.00,,,0.00,VWS V14.01,2013-09-24 16:10:00,
2013-09-24 12:13:00,73.7,57.0,30.02,NE,44,0.0,1.0,56,0.00,,,0.00,VWS V14.01,2013-09-24 16:13:00,
2013-09-24 12:18:00,73.5,56.9,30.02,NE,44,0.0,1.0,56,0.00,,,0.00,VWS V14.01,2013-09-24 16:18:00,
2013-09-24 12:20:00,73.7,56.5,30.02,NE,44,0.0,1.0,55,0.00,,,0.00,VWS V14.01,2013-09-24 16:20:00,
2013-09-24 12:23:00,73.9,56.7,30.02,NE,44,0.0,1.0,55,0.00,,,0.00,VWS V14.01,2013-09-24 16:23:00,
2013-09-24 12:28:00,73.3,56.7,30.02,NE,44,1.0,1.0,56,0.00,,,0.00,VWS V14.01,2013-09-24 16:28:00,
2013-09-24 12:30:00,74.4,57.2,30.01,NE,44,0.0,1.0,55,0.00,,,0.00,VWS V14.01,2013-09-24 16:30:00,
2013-09-24 12:33:00,74.0,57.3,30.02,NE,44,0.0,1.0,56,0.00,,,0.00,VWS V14.01,2013-09-24 16:33:00,
2013-09-24 12:38:00,75.3,58.5,30.01,NE,44,0.0,1.0,56,0.00,,,0.00,VWS V14.01,2013-09-24 16:38:00,
2013-09-24 12:40:00,75.8,59.0,30.01,NE,44,0.0,1.0,56,0.00,,,0.00,VWS V14.01,2013-09-24 16:40:00,
2013-09-24 12:43:00,75.8,58.5,30.01,NE,44,0.0,1.0,55,0.00,,,0.00,VWS V14.01,2013-09-24 16:43:00,
2013-09-24 12:48:00,75.8,57.5,30.01,NE,44,0.0,1.0,53,0.00,,,0.00,VWS V14.01,2013-09-24 16:48:00,
2013-09-24 12:50:00,76.1,58.3,30.01,NE,44,1.0,1.0,54,0.00,,,0.00,VWS V14.01,2013-09-24 16:50:00,
2013-09-24 12:53:00,76.0,58.7,30.01,NE,44,0.0,1.0,55,0.00,,,0.00,VWS V14.01,2013-09-24 16:53:00,
2013-09-24 12:58:00,76.8,57.9,30.01,NE,44,0.0,1.0,52,0.00,,,0.00,VWS V14.01,2013-09-24 16:58:00,
2013-09-24 13:00:00,77.7,59.2,30.01,NE,44,0.0,1.0,53,0.00,,,0.00,VWS V14.01,2013-09-24 17:00:00,
2013-09-24 13:03:00,77.6,59.1,30.01,NE,44,0.0,1.0,53,0.00,,,0.00,VWS V14.01,2013-09-24 17:03:00,
2013-09-24 13:08:00,77.7,58.7,30.01,ESE,111,0.0,1.0,52,0.00,,,0.00,VWS V14.01,2013-09-24 17:08:00,
2013-09-24 13:10:00,77.6,58.1,30.01,ESE,112,0.0,1.0,51,0.00,,,0.00,VWS V14.01,2013-09-24 17:10:00,
2013-09-24 13:13:00,77.6,58.1,30.01,ESE,111,0.0,1.0,51,0.00,,,0.00,VWS V14.01,2013-09-24 17:13:00,
2013-09-24 13:18:00,77.2,58.2,30.01,ESE,112,0.0,1.0,52,0.00,,,0.00,VWS V14.01,2013-09-24 17:18:00,
2013-09-24 13:20:00,76.8,58.4,30.00,ENE,76,0.0,1.0,53,0.00,,,0.00,VWS V14.01,2013-09-24 17:20:00,
2013-09-24 13:23:00,76.8,58.4,30.00,NNE,26,0.0,1.0,53,0.00,,,0.00,VWS V14.01,2013-09-24 17:23:00,
2013-09-24 13:28:00,77.4,59.0,30.00,ENE,78,0.0,1.0,53,0.00,,,0.00,VWS V14.01,2013-09-24 17:28:00,
2013-09-24 13:30:00,77.4,57.9,30.00,ENE,78,0.0,1.0,51,0.00,,,0.00,VWS V14.01,2013-09-24 17:30:00,
2013-09-24 13:33:00,77.6,58.6,30.00,ENE,78,0.0,1.0,52,0.00,,,0.00,VWS V14.01,2013-09-24 17:33:00,
2013-09-24 13:38:00,77.4,58.4,30.00,ENE,78,0.0,1.0,52,0.00,,,0.00,VWS V14.01,2013-09-24 17:38:00,
2013-09-24 13:40:00,77.2,58.8,30.00,SE,127,0.0,1.0,53,0.00,,,0.00,VWS V14.01,2013-09-24 17:40:00,
2013-09-24 13:43:00,77.2,59.3,30.00,SE,127,0.0,1.0,54,0.00,,,0.00,VWS V14.01,2013-09-24 17:43:00,
2013-09-24 13:48:00,77.4,58.4,30.00,SE,127,0.0,1.0,52,0.00,,,0.00,VWS V14.01,2013-09-24 17:48:00,
2013-09-24 13:50:00,76.1,58.3,29.99,SE,127,0.0,1.0,54,0.00,,,0.00,VWS V14.01,2013-09-24 17:50:00,
2013-09-24 13:53:00,76.3,57.9,29.99,SE,127,0.0,1.0,53,0.00,,,0.00,VWS V14.01,2013-09-24 17:53:00,
2013-09-24 13:58:00,76.1,58.8,29.99,SE,127,0.0,1.0,55,0.00,,,0.00,VWS V14.01,2013-09-24 17:58:00,
2013-09-24 14:00:00,75.8,58.0,29.98,SE,127,0.0,1.0,54,0.00,,,0.00,VWS V14.01,2013-09-24 18:00:00,
2013-09-24 14:04:00,76.0,57.7,29.99,SE,127,0.0,1.0,53,0.00,,,0.00,VWS V14.01,2013-09-24 18:04:00,
2013-09-24 14:09:00,75.1,57.8,29.98,SE,127,0.0,1.0,55,0.00,,,0.00,VWS V14.01,2013-09-24 18:09:00,
2013-09-24 14:10:00,74.7,58.0,29.98,SE,127,0.0,1.0,56,0.00,,,0.00,VWS V14.01,2013-09-24 18:10:00,
2013-09-24 14:14:00,74.9,58.2,29.98,SE,127,0.0,1.0,56,0.00,,,0.00,VWS V14.01,2013-09-24 18:14:00,
2013-09-24 14:19:00,74.6,57.9,29.98,SE,127,0.0,1.0,56,0.00,,,0.00,VWS V14.01,2013-09-24 18:19:00,
2013-09-24 14:20:00,74.7,58.5,29.97,SE,127,0.0,1.0,57,0.00,,,0.00,VWS V14.01,2013-09-24 18:20:00,
2013-09-24 14:24:00,74.6,58.4,29.97,SE,127,0.0,1.0,57,0.00,,,0.00,VWS V14.01,2013-09-24 18:24:00,
2013-09-24 14:29:00,75.6,58.3,29.97,SE,127,0.0,1.0,55,0.00,,,0.00,VWS V14.01,2013-09-24 18:29:00,
2013-09-24 14:30:00,76.3,56.9,29.96,ENE,58,0.0,1.0,51,0.00,,,0.00,VWS V14.01,2013-09-24 18:30:00,
2013-09-24 14:34:00,76.1,57.2,29.97,ESE,115,1.0,1.0,52,0.00,,,0.00,VWS V14.01,2013-09-24 18:34:00,
2013-09-24 14:39:00,76.5,57.0,29.96,NE,34,0.0,1.0,51,0.00,,,0.00,VWS V14.01,2013-09-24 18:39:00,
2013-09-24 14:40:00,76.8,57.3,29.96,NE,34,0.0,1.0,51,0.00,,,0.00,VWS V14.01,2013-09-24 18:40:00,
2013-09-24 14:44:00,76.8,56.8,29.96,NE,34,0.0,1.0,50,0.00,,,0.00,VWS V14.01,2013-09-24 18:44:00,
2013-09-24 14:49:00,77.0,57.0,29.96,NE,34,0.0,1.0,50,0.00,,,0.00,VWS V14.01,2013-09-24 18:49:00,
2013-09-24 14:50:00,76.8,56.8,29.96,NE,34,0.0,1.0,50,0.00,,,0.00,VWS V14.01,2013-09-24 18:50:00,
2013-09-24 14:54:00,76.8,56.8,29.96,NE,34,0.0,1.0,50,0.00,,,0.00,VWS V14.01,2013-09-24 18:54:00,
2013-09-24 14:59:00,76.8,57.3,29.96,ENE,57,0.0,1.0,51,0.00,,,0.00,VWS V14.01,2013-09-24 18:59:00,
2013-09-24 15:00:00,76.3,56.3,29.95,ENE,57,0.0,1.0,50,0.00,,,0.00,VWS V14.01,2013-09-24 19:00:00,
2013-09-24 15:04:00,76.3,56.9,29.96,ENE,57,0.0,1.0,51,0.00,,,0.00,VWS V14.01,2013-09-24 19:04:00,
2013-09-24 15:09:00,76.0,58.7,29.95,ENE,57,0.0,1.0,55,0.00,,,0.00,VWS V14.01,2013-09-24 19:09:00,
2013-09-24 15:10:00,75.3,57.5,29.95,ENE,57,0.0,1.0,54,0.00,,,0.00,VWS V14.01,2013-09-24 19:10:00,
2013-09-24 15:14:00,75.4,57.6,29.95,ENE,57,0.0,1.0,54,0.00,,,0.00,VWS V14.01,2013-09-24 19:14:00,
2013-09-24 15:19:00,75.3,57.5,29.94,ENE,58,0.0,1.0,54,0.00,,,0.00,VWS V14.01,2013-09-24 19:19:00,
2013-09-24 15:20:00,75.4,55.5,29.94,ENE,58,0.0,1.0,50,0.00,,,0.00,VWS V14.01,2013-09-24 19:20:00,
2013-09-24 15:24:00,75.3,55.4,29.94,ENE,58,0.0,1.0,50,0.00,,,0.00,VWS V14.01,2013-09-24 19:24:00,
2013-09-24 15:29:00,75.6,56.2,29.94,ENE,58,0.0,1.0,51,0.00,,,0.00,VWS V14.01,2013-09-24 19:29:00,
2013-09-24 15:30:00,75.8,56.9,29.94,ENE,58,0.0,1.0,52,0.00,,,0.00,VWS V14.01,2013-09-24 19:30:00,
2013-09-24 15:34:00,75.8,56.4,29.94,ENE,58,0.0,1.0,51,0.00,,,0.00,VWS V14.01,2013-09-24 19:34:00,
2013-09-24 15:39:00,76.0,56.0,29.94,SSE,166,0.0,1.0,50,0.00,,,0.00,VWS V14.01,2013-09-24 19:39:00,
2013-09-24 15:40:00,76.0,55.5,29.94,SSE,166,0.0,1.0,49,0.00,,,0.00,VWS V14.01,2013-09-24 19:40:00,
2013-09-24 15:44:00,76.0,56.0,29.94,SSE,166,0.0,1.0,50,0.00,,,0.00,VWS V14.01,2013-09-24 19:44:00,
2013-09-24 15:49:00,75.8,55.3,29.93,SSE,166,0.0,1.0,49,0.00,,,0.00,VWS V14.01,2013-09-24 19:49:00,
2013-09-24 15:50:00,75.8,55.8,29.93,SSE,166,0.0,1.0,50,0.00,,,0.00,VWS V14.01,2013-09-24 19:50:00,
2013-09-24 15:54:00,75.6,54.5,29.93,SSE,166,0.0,1.0,48,0.00,,,0.00,VWS V14.01,2013-09-24 19:54:00,
2013-09-24 15:59:00,75.8,56.4,29.93,SSE,166,0.0,1.0,51,0.00,,,0.00,VWS V14.01,2013-09-24 19:59:00,
2013-09-24 16:00:00,75.8,56.4,29.92,SSE,166,0.0,1.0,51,0.00,,,0.00,VWS V14.01,2013-09-24 20:00:00,
2013-09-24 16:04:00,75.8,56.4,29.92,SSE,166,0.0,1.0,51,0.00,,,0.00,VWS V14.01,2013-09-24 20:04:00,
2013-09-24 16:09:00,76.0,55.5,29.92,SSE,166,0.0,1.0,49,0.00,,,0.00,VWS V14.01,2013-09-24 20:09:00,
2013-09-24 16:10:00,76.1,57.2,29.92,SSE,166,0.0,1.0,52,0.00,,,0.00,VWS V14.01,2013-09-24 20:10:00,
2013-09-24 16:14:00,76.1,57.2,29.92,SSE,166,0.0,1.0,52,0.00,,,0.00,VWS V14.01,2013-09-24 20:14:00,
2013-09-24 16:19:00,76.1,56.7,29.92,SSE,167,0.0,1.0,51,0.00,,,0.00,VWS V14.01,2013-09-24 20:19:00,
2013-09-24 16:20:00,76.1,56.1,29.92,SSE,167,0.0,1.0,50,0.00,,,0.00,VWS V14.01,2013-09-24 20:20:00,
2013-09-24 16:24:00,76.1,56.1,29.92,SSE,167,0.0,1.0,50,0.00,,,0.00,VWS V14.01,2013-09-24 20:24:00,
2013-09-24 16:29:00,76.5,55.9,29.92,SSE,167,0.0,1.0,49,0.00,,,0.00,VWS V14.01,2013-09-24 20:29:00,
2013-09-24 16:30:00,76.7,56.7,29.92,SSE,167,0.0,1.0,50,0.00,,,0.00,VWS V14.01,2013-09-24 20:30:00,
2013-09-24 16:34:00,76.7,57.2,29.92,SSE,167,0.0,1.0,51,0.00,,,0.00,VWS V14.01,2013-09-24 20:34:00,
2013-09-24 16:39:00,76.7,57.8,29.92,SSE,167,0.0,1.0,52,0.00,,,0.00,VWS V14.01,2013-09-24 20:39:00,
2013-09-24 16:40:00,76.3,56.9,29.92,SSE,167,0.0,1.0,51,0.00,,,0.00,VWS V14.01,2013-09-24 20:40:00,
2013-09-24 16:44:00,76.5,57.0,29.92,SSE,167,0.0,1.0,51,0.00,,,0.00,VWS V14.01,2013-09-24 20:44:00,
2013-09-24 16:49:00,76.0,57.1,29.92,SSE,167,0.0,1.0,52,0.00,,,0.00,VWS V14.01,2013-09-24 20:49:00,
2013-09-24 16:50:00,75.4,57.1,29.92,SSE,167,0.0,1.0,53,0.00,,,0.00,VWS V14.01,2013-09-24 20:50:00,
2013-09-24 16:54:00,75.6,57.3,29.92,SSE,167,0.0,1.0,53,0.00,,,0.00,VWS V14.01,2013-09-24 20:54:00,
2013-09-24 16:59:00,75.4,57.6,29.92,SSE,167,0.0,1.0,54,0.00,,,0.00,VWS V14.01,2013-09-24 20:59:00,
2013-09-24 17:00:00,75.3,57.0,29.92,SSE,167,0.0,1.0,53,0.00,,,0.00,VWS V14.01,2013-09-24 21:00:00,
2013-09-24 17:04:00,75.3,57.0,29.92,SSE,167,0.0,1.0,53,0.00,,,0.00,VWS V14.01,2013-09-24 21:04:00,
2013-09-24 17:09:00,75.1,57.3,29.92,SSE,167,0.0,1.0,54,0.00,,,0.00,VWS V14.01,2013-09-24 21:09:00,
2013-09-24 17:10:00,75.1,56.8,29.92,SSE,167,0.0,1.0,53,0.00,,,0.00,VWS V14.01,2013-09-24 21:10:00,
2013-09-24 17:14:00,75.1,57.8,29.92,SSE,167,0.0,1.0,55,0.00,,,0.00,VWS V14.01,2013-09-24 21:14:00,
2013-09-24 17:19:00,75.1,56.8,29.92,SSE,167,0.0,1.0,53,0.00,,,0.00,VWS V14.01,2013-09-24 21:19:00,
2013-09-24 17:20:00,74.9,57.2,29.92,SSE,167,0.0,1.0,54,0.00,,,0.00,VWS V14.01,2013-09-24 21:20:00,
2013-09-24 17:24:00,74.9,57.2,29.92,SSE,167,0.0,1.0,54,0.00,,,0.00,VWS V14.01,2013-09-24 21:24:00,
2013-09-24 17:29:00,74.9,57.2,29.92,SSE,167,0.0,1.0,54,0.00,,,0.00,VWS V14.01,2013-09-24 21:29:00,
2013-09-24 17:30:00,74.9,56.6,29.92,SSE,167,0.0,1.0,53,0.00,,,0.00,VWS V14.01,2013-09-24 21:30:00,
2013-09-24 17:34:00,74.9,56.6,29.92,SSE,167,0.0,1.0,53,0.00,,,0.00,VWS V14.01,2013-09-24 21:34:00,
2013-09-24 17:39:00,74.9,57.2,29.92,SSE,167,0.0,1.0,54,0.00,,,0.00,VWS V14.01,2013-09-24 21:39:00,
2013-09-24 17:40:00,74.9,56.6,29.92,SSE,167,0.0,1.0,53,0.00,,,0.00,VWS V14.01,2013-09-24 21:40:00,
2013-09-24 17:44:00,74.9,56.6,29.92,SSE,167,0.0,1.0,53,0.00,,,0.00,VWS V14.01,2013-09-24 21:44:00,
2013-09-24 17:49:00,74.7,57.0,29.92,SSE,167,0.0,1.0,54,0.00,,,0.00,VWS V14.01,2013-09-24 21:49:00,
2013-09-24 17:50:00,74.7,57.0,29.92,SSE,167,0.0,1.0,54,0.00,,,0.00,VWS V14.01,2013-09-24 21:50:00,
2013-09-24 17:54:00,74.7,57.0,29.92,SSE,167,0.0,1.0,54,0.00,,,0.00,VWS V14.01,2013-09-24 21:54:00,
2013-09-24 17:59:00,74.6,57.4,29.92,SSE,167,0.0,1.0,55,0.00,,,0.00,VWS V14.01,2013-09-24 21:59:00,
2013-09-24 18:00:00,74.4,56.7,29.92,SSE,167,0.0,1.0,54,0.00,,,0.00,VWS V14.01,2013-09-24 22:00:00,
2013-09-24 18:04:00,74.4,56.7,29.92,SSE,167,0.0,1.0,54,0.00,,,0.00,VWS V14.01,2013-09-24 22:04:00,
2013-09-24 18:09:00,74.4,57.7,29.92,SSE,167,0.0,1.0,56,0.00,,,0.00,VWS V14.01,2013-09-24 22:09:00,
2013-09-24 18:10:00,74.4,57.2,29.92,SSE,167,0.0,1.0,55,0.00,,,0.00,VWS V14.01,2013-09-24 22:10:00,
2013-09-24 18:14:00,74.4,57.2,29.92,SSE,167,0.0,1.0,55,0.00,,,0.00,VWS V14.01,2013-09-24 22:14:00,
2013-09-24 18:19:00,74.2,57.0,29.92,SSE,167,0.0,1.0,55,0.00,,,0.00,VWS V14.01,2013-09-24 22:19:00,
2013-09-24 18:20:00,74.2,57.0,29.92,SSE,167,0.0,1.0,55,0.00,,,0.00,VWS V14.01,2013-09-24 22:20:00,
2013-09-24 18:24:00,74.2,57.0,29.92,SSE,167,0.0,1.0,55,0.00,,,0.00,VWS V14.01,2013-09-24 22:24:00,
2013-09-24 18:29:00,74.2,57.5,29.92,SSE,167,0.0,1.0,56,0.00,,,0.00,VWS V14.01,2013-09-24 22:29:00,
2013-09-24 18:30:00,74.2,57.5,29.91,SSE,167,0.0,1.0,56,0.00,,,0.00,VWS V14.01,2013-09-24 22:30:00,
2013-09-24 18:34:00,74.2,57.5,29.91,SSE,167,0.0,1.0,56,0.00,,,0.00,VWS V14.01,2013-09-24 22:34:00,
2013-09-24 18:39:00,74.0,56.8,29.91,SSE,167,0.0,1.0,55,0.00,,,0.00,VWS V14.01,2013-09-24 22:39:00,
2013-09-24 18:40:00,73.9,57.7,29.91,SSE,167,0.0,1.0,57,0.00,,,0.00,VWS V14.01,2013-09-24 22:40:00,
2013-09-24 18:44:00,73.9,57.7,29.91,SSE,167,0.0,1.0,57,0.00,,,0.00,VWS V14.01,2013-09-24 22:44:00,
2013-09-24 18:49:00,73.7,57.5,29.91,SSE,167,0.0,1.0,57,0.00,,,0.00,VWS V14.01,2013-09-24 22:49:00,
2013-09-24 18:50:00,73.5,57.3,29.91,SSE,167,0.0,1.0,57,0.00,,,0.00,VWS V14.01,2013-09-24 22:50:00,
2013-09-24 18:54:00,73.7,57.5,29.91,SSE,167,0.0,1.0,57,0.00,,,0.00,VWS V14.01,2013-09-24 22:54:00,
2013-09-24 18:59:00,73.5,57.8,29.91,South,169,0.0,1.0,58,0.00,,,0.00,VWS V14.01,2013-09-24 22:59:00,
2013-09-24 19:00:00,73.2,58.0,29.91,South,169,0.0,1.0,59,0.00,,,0.00,VWS V14.01,2013-09-24 23:00:00,
2013-09-24 19:04:00,73.3,58.1,29.91,South,169,0.0,1.0,59,0.00,,,0.00,VWS V14.01,2013-09-24 23:04:00,
2013-09-24 19:09:00,73.0,57.8,29.91,South,169,0.0,1.0,59,0.00,,,0.00,VWS V14.01,2013-09-24 23:09:00,
2013-09-24 19:10:00,72.8,57.7,29.91,South,169,0.0,1.0,59,0.00,,,0.00,VWS V14.01,2013-09-24 23:10:00,
2013-09-24 19:14:00,72.8,57.7,29.91,South,169,0.0,1.0,59,0.00,,,0.00,VWS V14.01,2013-09-24 23:14:00,
2013-09-24 19:19:00,72.7,57.6,29.91,South,169,0.0,1.0,59,0.00,,,0.00,VWS V14.01,2013-09-24 23:19:00,
2013-09-24 19:20:00,72.5,57.4,29.91,South,169,0.0,1.0,59,0.00,,,0.00,VWS V14.01,2013-09-24 23:20:00,
2013-09-24 19:24:00,72.5,57.4,29.91,South,169,0.0,1.0,59,0.00,,,0.00,VWS V14.01,2013-09-24 23:24:00,
2013-09-24 19:29:00,72.3,57.2,29.91,South,169,0.0,1.0,59,0.00,,,0.00,VWS V14.01,2013-09-24 23:29:00,
2013-09-24 19:30:00,72.3,57.2,29.91,South,169,0.0,1.0,59,0.00,,,0.00,VWS V14.01,2013-09-24 23:30:00,
2013-09-24 19:34:00,72.3,57.2,29.91,South,169,0.0,1.0,59,0.00,,,0.00,VWS V14.01,2013-09-24 23:34:00,
2013-09-24 19:39:00,72.1,57.0,29.91,South,169,0.0,1.0,59,0.00,,,0.00,VWS V14.01,2013-09-24 23:39:00,
2013-09-24 19:40:00,72.0,57.4,29.91,South,169,0.0,1.0,60,0.00,,,0.00,VWS V14.01,2013-09-24 23:40:00,
2013-09-24 19:44:00,72.0,57.4,29.91,South,169,0.0,1.0,60,0.00,,,0.00,VWS V14.01,2013-09-24 23:44:00,
2013-09-24 19:49:00,71.8,57.2,29.90,South,169,0.0,1.0,60,0.00,,,0.00,VWS V14.01,2013-09-24 23:49:00,
2013-09-24 19:50:00,71.5,57.4,29.90,South,169,0.0,1.0,61,0.00,,,0.00,VWS V14.01,2013-09-24 23:50:00,
2013-09-24 19:54:00,71.5,57.4,29.90,South,169,0.0,1.0,61,0.00,,,0.00,VWS V14.01,2013-09-24 23:54:00,
2013-09-24 19:59:00,71.3,57.2,29.90,South,169,0.0,1.0,61,0.00,,,0.00,VWS V14.01,2013-09-24 23:59:00,
2013-09-24 20:00:00,71.3,57.6,29.90,South,169,0.0,1.0,62,0.00,,,0.00,VWS V14.01,2013-09-25 00:00:00,
2013-09-24 20:04:00,71.3,57.6,29.90,South,169,0.0,1.0,62,0.00,,,0.00,VWS V14.01,2013-09-25 00:04:00,
2013-09-24 20:10:00,71.1,57.4,29.90,South,169,0.0,1.0,62,0.00,,,0.00,VWS V14.01,2013-09-25 00:10:00,
2013-09-24 20:15:00,71.1,57.4,29.90,South,169,0.0,1.0,62,0.00,,,0.00,VWS V14.01,2013-09-25 00:15:00,
2013-09-24 20:20:00,70.9,57.2,29.91,South,169,0.0,1.0,62,0.00,,,0.00,VWS V14.01,2013-09-25 00:20:00,
2013-09-24 20:25:00,70.8,57.6,29.91,South,169,0.0,1.0,63,0.00,,,0.00,VWS V14.01,2013-09-25 00:25:00,
2013-09-24 20:30:00,70.6,57.4,29.91,South,169,0.0,1.0,63,0.00,,,0.00,VWS V14.01,2013-09-25 00:30:00,
2013-09-24 20:35:00,70.4,57.7,29.90,South,169,0.0,1.0,64,0.00,,,0.00,VWS V14.01,2013-09-25 00:35:00,
2013-09-24 20:40:00,70.3,58.0,29.90,South,169,0.0,1.0,65,0.00,,,0.00,VWS V14.01,2013-09-25 00:40:00,
2013-09-24 20:45:00,70.1,57.8,29.90,South,169,0.0,1.0,65,0.00,,,0.00,VWS V14.01,2013-09-25 00:45:00,
2013-09-24 20:50:00,69.9,58.0,29.91,South,169,0.0,1.0,66,0.00,,,0.00,VWS V14.01,2013-09-25 00:50:00,
2013-09-24 20:55:00,69.8,57.9,29.91,South,169,0.0,1.0,66,0.00,,,0.00,VWS V14.01,2013-09-25 00:55:00,
2013-09-24 21:00:00,69.6,57.8,29.91,South,169,0.0,1.0,66,0.00,,,0.00,VWS V14.01,2013-09-25 01:00:00,
2013-09-24 21:05:00,69.4,58.0,29.91,South,169,0.0,1.0,67,0.00,,,0.00,VWS V14.01,2013-09-25 01:05:00,
2013-09-24 21:10:00,69.4,58.4,29.91,South,169,0.0,1.0,68,0.00,,,0.00,VWS V14.01,2013-09-25 01:10:00,
2013-09-24 21:15:00,69.1,58.1,29.91,South,169,0.0,1.0,68,0.00,,,0.00,VWS V14.01,2013-09-25 01:15:00,
2013-09-24 21:20:00,68.9,57.9,29.91,South,169,0.0,1.0,68,0.00,,,0.00,VWS V14.01,2013-09-25 01:20:00,
2013-09-24 21:25:00,68.6,57.6,29.91,South,169,0.0,1.0,68,0.00,,,0.00,VWS V14.01,2013-09-25 01:25:00,
2013-09-24 21:30:00,68.6,58.0,29.91,South,169,0.0,1.0,69,0.00,,,0.00,VWS V14.01,2013-09-25 01:30:00,
2013-09-24 21:35:00,68.4,57.8,29.91,South,169,0.0,1.0,69,0.00,,,0.00,VWS V14.01,2013-09-25 01:35:00,
2013-09-24 21:40:00,68.4,57.8,29.91,South,169,0.0,1.0,69,0.00,,,0.00,VWS V14.01,2013-09-25 01:40:00,
2013-09-24 21:45:00,68.3,58.2,29.91,South,169,0.0,1.0,70,0.00,,,0.00,VWS V14.01,2013-09-25 01:45:00,
2013-09-24 21:50:00,68.1,58.0,29.91,South,169,0.0,1.0,70,0.00,,,0.00,VWS V14.01,2013-09-25 01:50:00,
2013-09-24 21:55:00,68.1,58.0,29.91,South,169,0.0,1.0,70,0.00,,,0.00,VWS V14.01,2013-09-25 01:55:00,
2013-09-24 22:00:00,67.9,57.8,29.91,South,169,0.0,1.0,70,0.00,,,0.00,VWS V14.01,2013-09-25 02:00:00,
2013-09-24 22:05:00,67.9,57.8,29.91,South,169,0.0,1.0,70,0.00,,,0.00,VWS V14.01,2013-09-25 02:05:00,
2013-09-24 22:10:00,67.8,58.1,29.91,South,169,0.0,1.0,71,0.00,,,0.00,VWS V14.01,2013-09-25 02:10:00,
2013-09-24 22:15:00,67.6,57.9,29.91,South,169,0.0,1.0,71,0.00,,,0.00,VWS V14.01,2013-09-25 02:15:00,
2013-09-24 22:20:00,67.6,57.9,29.91,South,169,0.0,1.0,71,0.00,,,0.00,VWS V14.01,2013-09-25 02:20:00,
2013-09-24 22:25:00,67.4,57.7,29.91,South,169,0.0,1.0,71,0.00,,,0.00,VWS V14.01,2013-09-25 02:25:00,
2013-09-24 22:30:00,67.3,58.0,29.91,South,169,0.0,1.0,72,0.00,,,0.00,VWS V14.01,2013-09-25 02:30:00,
2013-09-24 22:35:00,67.3,58.0,29.91,South,169,0.0,1.0,72,0.00,,,0.00,VWS V14.01,2013-09-25 02:35:00,
2013-09-24 22:40:00,67.1,57.8,29.91,South,169,0.0,1.0,72,0.00,,,0.00,VWS V14.01,2013-09-25 02:40:00,
2013-09-24 22:45:00,66.9,57.6,29.91,South,169,0.0,1.0,72,0.00,,,0.00,VWS V14.01,2013-09-25 02:45:00,
2013-09-24 22:50:00,66.8,57.9,29.91,South,169,0.0,1.0,73,0.00,,,0.00,VWS V14.01,2013-09-25 02:50:00,
2013-09-24 22:55:00,66.6,58.1,29.91,South,169,0.0,1.0,74,0.00,,,0.00,VWS V14.01,2013-09-25 02:55:00,
2013-09-24 23:00:00,66.4,57.9,29.91,South,169,0.0,1.0,74,0.00,,,0.00,VWS V14.01,2013-09-25 03:00:00,
2013-09-24 23:01:00,65.2,58.5,29.91,South,169,0.0,1.0,79,0.00,,,0.00,VWS V14.01,2013-09-25 03:01:00,
2013-09-24 23:05:00,66.3,57.8,29.91,South,169,0.0,1.0,74,0.00,,,0.00,VWS V14.01,2013-09-25 03:05:00,
2013-09-24 23:06:00,65.2,58.5,29.91,South,169,0.0,1.0,79,0.00,,,0.00,VWS V14.01,2013-09-25 03:06:00,
2013-09-24 23:10:00,66.3,57.8,29.91,South,169,0.0,1.0,74,0.00,,,0.00,VWS V14.01,2013-09-25 03:10:00,
2013-09-24 23:11:00,65.0,58.7,29.91,South,169,0.0,1.0,80,0.00,,,0.00,VWS V14.01,2013-09-25 03:11:00,
2013-09-24 23:15:00,66.1,58.0,29.91,South,169,0.0,1.0,75,0.00,,,0.00,VWS V14.01,2013-09-25 03:15:00,
2013-09-24 23:16:00,65.0,58.7,29.91,South,169,0.0,1.0,80,0.00,,,0.00,VWS V14.01,2013-09-25 03:16:00,
2013-09-24 23:20:00,66.0,57.9,29.91,South,169,0.0,1.0,75,0.00,,,0.00,VWS V14.01,2013-09-25 03:20:00,
2013-09-24 23:21:00,64.8,58.5,29.91,South,169,0.0,1.0,80,0.00,,,0.00,VWS V14.01,2013-09-25 03:21:00,
2013-09-24 23:26:00,64.8,58.5,29.91,South,169,0.0,1.0,80,0.00,,,0.00,VWS V14.01,2013-09-25 03:26:00,
2013-09-24 23:30:00,65.8,58.0,29.91,South,169,0.0,1.0,76,0.00,,,0.00,VWS V14.01,2013-09-25 03:30:00,
2013-09-24 23:31:00,64.7,58.4,29.91,South,169,0.0,1.0,80,0.00,,,0.00,VWS V14.01,2013-09-25 03:31:00,
2013-09-24 23:35:00,65.6,58.2,29.91,South,169,0.0,1.0,77,0.00,,,0.00,VWS V14.01,2013-09-25 03:35:00,
2013-09-24 23:36:00,64.7,58.4,29.91,South,169,0.0,1.0,80,0.00,,,0.00,VWS V14.01,2013-09-25 03:36:00,
2013-09-24 23:40:00,65.5,58.1,29.91,South,169,0.0,1.0,77,0.00,,,0.00,VWS V14.01,2013-09-25 03:40:00,
2013-09-24 23:41:00,64.7,58.4,29.91,South,169,0.0,1.0,80,0.00,,,0.00,VWS V14.01,2013-09-25 03:41:00,
2013-09-24 23:45:00,65.5,58.5,29.91,South,169,0.0,1.0,78,0.00,,,0.00,VWS V14.01,2013-09-25 03:45:00,
2013-09-24 23:46:00,64.7,58.7,29.90,South,169,0.0,1.0,81,0.00,,,0.00,VWS V14.01,2013-09-25 03:46:00,
2013-09-24 23:50:00,65.3,58.3,29.91,South,169,0.0,1.0,78,0.00,,,0.00,VWS V14.01,2013-09-25 03:50:00,
2013-09-24 23:51:00,64.5,58.5,29.90,South,169,0.0,1.0,81,0.00,,,0.00,VWS V14.01,2013-09-25 03:51:00,
2013-09-24 23:55:00,65.3,58.3,29.91,South,169,0.0,1.0,78,0.00,,,0.00,VWS V14.01,2013-09-25 03:55:00,
2013-09-24 23:56:00,64.5,58.5,29.90,South,169,0.0,1.0,81,0.00,,,0.00,VWS V14.01,2013-09-25 03:56:00,